Location: Newark
(33.6333°S, 78.8500°W)
Time: 20:05:56
(UTC+00:00)

Courier 1B - Pass Details

Date: 28 September 2019
Orbit: 962 x 1209 km, 28.3° (Epoch: 17 October)

Event Time Altitude Azimuth Distance (km) Brightness Sun altitude
Rises 19:55:55 0° 296° (WNW) 4,092 11.7 39.4°
Reaches altitude 10° 19:58:52 10° 302° (WNW) 3,141 11.4 38.8°
Maximum altitude 20:06:21 49° 13° (NNE) 1,523 9.2 37.5°
Drops below altitude 10° 20:13:46 10° 85° (E) 3,108 9.8 36.1°
Sets 20:16:40 0° 90° (E) 4,046 10.3 35.5°
